Location: ????????
(48.4751°N, 37.6926°E)
Time: 21:11:27
(UTC+00:00)

Cosmos 1455 - Pass Details

Date: 20 January 2021
Orbit: 499 x 520 km, 82.5° (Epoch: 02 March)

Event Time Altitude Azimuth Distance (km) Brightness Sun altitude
Rises 15:44:47 0° 354° (N) 2,628 5.7 -15.5°
Reaches altitude 10° 15:46:57 10° 359° (N) 1,741 4.8 -15.9°
Maximum altitude 15:50:42 55° 77° (ENE) 622 2.2 -16.5°
Drops below altitude 10° 15:54:27 10° 157° (SSE) 1,739 4.7 -17.1°
Sets 15:56:36 0° 162° (SSE) 2,624 5.7 -17.4°
